Time,TemperatureF,DewpointF,PressureIn,WindDirection,WindDirectionDegrees,WindSpeedMPH,WindSpeedGustMPH,Humidity,HourlyPrecipIn,Conditions,Clouds,dailyrainin,SoftwareType,DateUTC
2013-01-19 00:02:00,60.0,12.0,-100.00,NNE,16,-999.0,-999.0,15,-99.99,,,-99.99,,2013-01-19 08:02:00,
2013-01-19 07:53:00,59.0,13.0,-100.00,NNE,25,-999.0,-999.0,16,-99.99,,,-99.99,,2013-01-19 15:53:00,
2013-01-19 08:03:00,59.0,13.0,-100.00,NNE,25,-999.0,-999.0,16,-99.99,,,-99.99,,2013-01-19 16:03:00,
2013-01-19 08:12:00,59.0,13.0,-100.00,NNE,25,-999.0,-999.0,16,-99.99,,,-99.99,,2013-01-19 16:12:00,
2013-01-19 08:23:00,59.0,13.0,-100.00,NNE,25,-999.0,-999.0,16,-99.99,,,-99.99,,2013-01-19 16:23:00,
2013-01-19 08:32:00,60.0,12.0,-100.00,NE,51,-999.0,-999.0,15,-99.99,,,-99.99,,2013-01-19 16:32:00,
2013-01-19 08:43:00,60.0,12.0,-100.00,NE,51,-999.0,-999.0,15,-99.99,,,-99.99,,2013-01-19 16:43:00,
2013-01-19 08:54:00,60.0,12.0,-100.00,NE,51,-999.0,-999.0,15,-99.99,,,-99.99,,2013-01-19 16:54:00,
2013-01-19 09:02:00,62.0,12.0,-100.00,NE,52,-999.0,-999.0,14,-99.99,,,-99.99,,2013-01-19 17:02:00,
2013-01-19 09:15:00,62.0,12.0,-100.00,NE,52,-999.0,-999.0,14,-99.99,,,-99.99,,2013-01-19 17:15:00,
2013-01-19 09:26:00,62.0,12.0,-100.00,NE,52,-999.0,-999.0,14,-99.99,,,-99.99,,2013-01-19 17:26:00,
2013-01-19 09:33:00,63.0,15.0,-100.00,ENE,66,-999.0,-999.0,15,-99.99,,,-99.99,,2013-01-19 17:33:00,
2013-01-19 09:49:00,63.0,15.0,-100.00,ENE,66,-999.0,-999.0,15,-99.99,,,-99.99,,2013-01-19 17:49:00,
2013-01-19 10:04:00,65.0,15.0,-100.00,NE,36,-999.0,-999.0,14,-99.99,,,-99.99,,2013-01-19 18:04:00,
2013-01-19 10:13:00,65.0,15.0,-100.00,NE,36,-999.0,-999.0,14,-99.99,,,-99.99,,2013-01-19 18:13:00,
2013-01-19 10:25:00,67.0,18.0,-100.00,NNE,30,-999.0,-999.0,15,-99.99,,,-99.99,,2013-01-19 18:25:00,
2013-01-19 10:33:00,67.0,18.0,-100.00,NNE,30,-999.0,-999.0,15,-99.99,,,-99.99,,2013-01-19 18:33:00,
2013-01-19 10:58:00,67.0,18.0,-100.00,NNE,30,-999.0,-999.0,15,-99.99,,,-99.99,,2013-01-19 18:58:00,
2013-01-19 11:03:00,68.0,20.0,-100.00,NE,38,-999.0,-999.0,16,-99.99,,,-99.99,,2013-01-19 19:03:00,
2013-01-19 11:34:00,68.0,20.0,-100.00,NE,38,-999.0,-999.0,16,-99.99,,,-99.99,,2013-01-19 19:34:00,
2013-01-19 11:49:00,68.0,20.0,-100.00,NE,38,-999.0,-999.0,16,-99.99,,,-99.99,,2013-01-19 19:49:00,
2013-01-19 11:55:00,68.0,20.0,-100.00,NE,38,-999.0,-999.0,16,-99.99,,,-99.99,,2013-01-19 19:55:00,
2013-01-19 15:10:00,74.0,16.0,-100.00,NE,35,-999.0,-999.0,11,-99.99,,,-99.99,,2013-01-19 23:10:00,
2013-01-19 15:24:00,72.0,17.0,-100.00,North,-999,-999.0,-999.0,12,-99.99,,,-99.99,,2013-01-19 23:24:00,
2013-01-19 15:33:00,72.0,17.0,-100.00,North,-999,-999.0,-999.0,12,-99.99,,,-99.99,,2013-01-19 23:33:00,
2013-01-19 15:49:00,72.0,17.0,-100.00,North,-999,-999.0,-999.0,12,-99.99,,,-99.99,,2013-01-19 23:49:00,
2013-01-19 16:14:00,71.0,18.0,-100.00,NE,36,-999.0,-999.0,13,-99.99,,,-99.99,,2013-01-20 00:14:00,
2013-01-19 16:24:00,71.0,18.0,-100.00,NE,36,-999.0,-999.0,13,-99.99,,,-99.99,,2013-01-20 00:24:00,
2013-01-19 16:33:00,70.0,17.0,-100.00,NNE,32,-999.0,-999.0,13,-99.99,,,-99.99,,2013-01-20 00:33:00,
2013-01-19 16:47:00,70.0,17.0,-100.00,NNE,32,-999.0,-999.0,13,-99.99,,,-99.99,,2013-01-20 00:47:00,
2013-01-19 17:03:00,68.0,17.0,-100.00,NE,48,-999.0,-999.0,14,-99.99,,,-99.99,,2013-01-20 01:03:00,
2013-01-19 17:15:00,68.0,17.0,-100.00,NE,48,-999.0,-999.0,14,-99.99,,,-99.99,,2013-01-20 01:15:00,
2013-01-19 17:24:00,66.0,14.0,-100.00,North,11,-999.0,-999.0,13,-99.99,,,-99.99,,2013-01-20 01:24:00,
2013-01-19 17:33:00,66.0,14.0,-100.00,North,11,-999.0,-999.0,13,-99.99,,,-99.99,,2013-01-20 01:33:00,
2013-01-19 17:50:00,66.0,14.0,-100.00,North,11,-999.0,-999.0,13,-99.99,,,-99.99,,2013-01-20 01:50:00,
2013-01-19 18:00:00,64.0,12.0,-100.00,NE,38,-999.0,-999.0,13,-99.99,,,-99.99,,2013-01-20 02:00:00,
2013-01-19 18:24:00,64.0,12.0,-100.00,NE,38,-999.0,-999.0,13,-99.99,,,-99.99,,2013-01-20 02:24:00,
2013-01-19 18:34:00,64.0,12.0,-100.00,NNE,14,-999.0,-999.0,13,-99.99,,,-99.99,,2013-01-20 02:34:00,
2013-01-19 18:45:00,64.0,12.0,-100.00,NNE,14,-999.0,-999.0,13,-99.99,,,-99.99,,2013-01-20 02:45:00,
2013-01-19 19:05:00,63.0,11.0,-100.00,NNE,18,-999.0,-999.0,13,-99.99,,,-99.99,,2013-01-20 03:05:00,
2013-01-19 19:13:00,63.0,11.0,-100.00,NNE,18,-999.0,-999.0,13,-99.99,,,-99.99,,2013-01-20 03:13:00,
2013-01-19 19:23:00,63.0,10.0,-100.00,NE,34,-999.0,-999.0,12,-99.99,,,-99.99,,2013-01-20 03:23:00,
2013-01-19 19:33:00,63.0,10.0,-100.00,NE,34,-999.0,-999.0,12,-99.99,,,-99.99,,2013-01-20 03:33:00,
2013-01-19 19:46:00,63.0,10.0,-100.00,NE,34,-999.0,-999.0,12,-99.99,,,-99.99,,2013-01-20 03:46:00,
2013-01-19 19:55:00,63.0,10.0,-100.00,NE,34,-999.0,-999.0,12,-99.99,,,-99.99,,2013-01-20 03:55:00,
2013-01-19 20:03:00,62.0,11.0,-100.00,NNE,33,-999.0,-999.0,13,-99.99,,,-99.99,,2013-01-20 04:03:00,
2013-01-19 20:14:00,62.0,11.0,-100.00,NNE,33,-999.0,-999.0,13,-99.99,,,-99.99,,2013-01-20 04:14:00,
2013-01-19 20:24:00,62.0,11.0,-100.00,NNE,30,-999.0,-999.0,13,-99.99,,,-99.99,,2013-01-20 04:24:00,
2013-01-19 20:33:00,62.0,11.0,-100.00,NNE,30,-999.0,-999.0,13,-99.99,,,-99.99,,2013-01-20 04:33:00,
2013-01-19 20:45:00,62.0,11.0,-100.00,NNE,30,-999.0,-999.0,13,-99.99,,,-99.99,,2013-01-20 04:45:00,
2013-01-19 20:55:00,62.0,11.0,-100.00,NNE,32,-999.0,-999.0,13,-99.99,,,-99.99,,2013-01-20 04:55:00,
2013-01-19 21:02:00,62.0,11.0,-100.00,NNE,32,-999.0,-999.0,13,-99.99,,,-99.99,,2013-01-20 05:02:00,
2013-01-19 21:12:00,62.0,11.0,-100.00,NNE,32,-999.0,-999.0,13,-99.99,,,-99.99,,2013-01-20 05:12:00,
2013-01-19 21:22:00,62.0,11.0,-100.00,NNE,32,-999.0,-999.0,13,-99.99,,,-99.99,,2013-01-20 05:22:00,
2013-01-19 21:32:00,62.0,11.0,-100.00,NE,42,-999.0,-999.0,13,-99.99,,,-99.99,,2013-01-20 05:32:00,
2013-01-19 21:43:00,62.0,11.0,-100.00,NE,42,-999.0,-999.0,13,-99.99,,,-99.99,,2013-01-20 05:43:00,
2013-01-19 21:53:00,62.0,11.0,-100.00,NE,51,6.0,-999.0,13,-99.99,,,-99.99,,2013-01-20 05:53:00,
2013-01-19 22:02:00,62.0,11.0,-100.00,NE,51,6.0,-999.0,13,-99.99,,,-99.99,,2013-01-20 06:02:00,
2013-01-19 22:12:00,62.0,11.0,-100.00,NE,51,6.0,-999.0,13,-99.99,,,-99.99,,2013-01-20 06:12:00,
2013-01-19 22:22:00,62.0,11.0,-100.00,NE,51,6.0,-999.0,13,-99.99,,,-99.99,,2013-01-20 06:22:00,
2013-01-19 22:32:00,62.0,11.0,-100.00,NNE,21,-999.0,-999.0,13,-99.99,,,-99.99,,2013-01-20 06:32:00,
2013-01-19 22:43:00,62.0,11.0,-100.00,NNE,21,-999.0,-999.0,13,-99.99,,,-99.99,,2013-01-20 06:43:00,
2013-01-19 22:53:00,63.0,11.0,-100.00,NNE,25,-999.0,-999.0,13,-99.99,,,-99.99,,2013-01-20 06:53:00,
2013-01-19 23:02:00,63.0,11.0,-100.00,NNE,25,-999.0,-999.0,13,-99.99,,,-99.99,,2013-01-20 07:02:00,
2013-01-19 23:11:00,63.0,11.0,-100.00,NNE,25,-999.0,-999.0,13,-99.99,,,-99.99,,2013-01-20 07:11:00,
2013-01-19 23:22:00,63.0,11.0,-100.00,NE,54,-999.0,-999.0,13,-99.99,,,-99.99,,2013-01-20 07:22:00,
2013-01-19 23:32:00,63.0,11.0,-100.00,NE,54,-999.0,-999.0,13,-99.99,,,-99.99,,2013-01-20 07:32:00,
2013-01-19 23:42:00,63.0,11.0,-100.00,NE,54,-999.0,-999.0,13,-99.99,,,-99.99,,2013-01-20 07:42:00,
2013-01-19 23:52:00,63.0,11.0,-100.00,NE,37,-999.0,-999.0,13,-99.99,,,-99.99,,2013-01-20 07:52:00,